Location: Clanezzo
(45.7500°N, 9.6000°E)
Time: 00:40:54
(UTC+00:00)

Cosmos 2112 Rocket - Pass Details

Date: 12 May 2021
Orbit: 755 x 787 km, 74.1° (Epoch: 23 June)

Event Time Altitude Azimuth Distance (km) Brightness Sun altitude
Rises 21:03:19 0° 341° (NNW) 3,286 8.7 -19.0°
Reaches altitude 10° 21:05:46 10° 346° (NNW) 2,356 7.6 -19.2°
Maximum altitude 21:11:02 55° 64° (ENE) 943 4.4 -19.7°
Enters shadow 21:12:56 36° 122° (ESE) 1,221 4.6 -19.9°
